Regional Weather Roundup
Issued by NWS Cleveland, OH

Home | Current Version | Previous Version | Graphics & Text | Print | Product List | Glossary On
Versions: 1 2 3 4 5 6 7 8 9 10 11 12 13 14 15 16 17 18 19 20 21 22 23 24 25 26 27 28 29 30 31 32 33 34 35 36 37 38 39 40 41 42 43 44 45 46 47 48 49 50
000
ASUS41 KCLE 300800
RWRCLE
OHIO REGIONAL WEATHER ROUNDUP
NATIONAL WEATHER SERVICE WILMINGTON, OH
400 AM EDT SAT APR 30 2016

NOTE: "FAIR" INDICATES FEW OR NO CLOUDS BELOW 12,000 FEET WITH NO
SIGNIFICANT WEATHER AND/OR OBSTRUCTIONS TO VISIBILITY.

OHZ001>008-015>018-024>027-034-035-043-044-300900-
   NORTHWEST OHIO

CITY           SKY/WX    TMP DP  RH WIND       PRES   REMARKS
DEFIANCE       FAIR      44  39  82 E8        30.10F
FINDLAY        FAIR      41  35  79 E9        30.09F
TOLEDO EXPRESS FAIR      40  35  83 NE6       30.12F
TOLEDO EXEC    FAIR      42  36  79 NE6       30.14F
LIMA           FAIR      41  39  93 E6        30.08F
$$

OHZ009>014-019>023-028>033-038-089-300900-
   NORTHEAST OHIO

CITY           SKY/WX    TMP DP  RH WIND       PRES   REMARKS
CLE-HOPKINS    FAIR      38  35  89 SW3       30.18R
CLE-LAKEFRONT  FAIR      42  38  85 CALM      30.15R
CUY CO. ARPT   NOT AVBL
LORAIN-ELYRIA  FOG       37  34  89 CALM      30.15R VSB 1
ASHTABULA      FAIR      33  32  96 CALM      30.15R
AKRON-CANTON   FAIR      38  36  92 CALM      30.13S FOG
WOOSTER        NOT AVBL
MANSFIELD      FAIR      36  36 100 NE8       30.10F
YOUNGSTOWN     FAIR      34  32  92 CALM      30.14R
$$

OHZ042-051>053-060>062-070>072-077>081-300900-
  SOUTHWEST OHIO

CITY           SKY/WX    TMP DP  RH WIND       PRES   REMARKS
CINC-COVINGTON CLOUDY    54  48  80 E15       30.02F
CINC-LUNKEN    CLOUDY    53  48  83 NE5       30.06R
HAMILTON       CLOUDY    53  45  74 E10       30.05S
DAYTON         NOT AVBL
WRIGHT-PAT AFB CLOUDY    49  43  80 NE8       30.04F
DAYTON GENERAL CLOUDY    50  41  71 E6        30.04R
WILMINGTON     CLOUDY    49  44  83 E9        30.06R
$$

OHZ036-037-039>041-045>050-054>059-063>069-073>076-082>088-300900-
  CENTRAL AND SOUTHEAST OHIO

CITY           SKY/WX    TMP DP  RH WIND       PRES   REMARKS
COLUMBUS       FAIR      44  40  85 E9        30.07F
OSU AIRPORT    FAIR      45  40  82 NE8       30.07F
BOLTON FIELD   NOT AVBL
RICKENBACK AFB NOT AVBL
NEWARK         CLOUDY    47  41  80 NE8       30.09F
MARION         FAIR      38  37  97 E6        30.10F FOG
LANCASTER      MOCLDY    47  43  86 NE8       30.08F
ZANESVILLE     CLOUDY    48  42  80 NE3       30.11F
NEW PHILLY     CLOUDY    44  39  82 CALM      30.12F
$$




USA.gov is the U.S. government's official web portal to all federal, state and local government web resources and services.